Tracking 19792 objects as of 15-Jul-2019
HD Live streaming from Space Station
objects crossing your sky now

FENGYUN 1C DEB

Track FENGYUN 1C DEB now!
10-day predictions


NORAD ID: 31066
Int'l Code: 1999-025BFL
Perigee: 472.4 km
Apogee: 732.6 km
Inclination: 99.0 °
Period: 96.6 minutes
Semi major axis: 6973 km
RCS: 0.002 m2 (small)
Launch date: May 10, 1999
Source: People's Republic of China (PRC)
Launch site: Taiyaun Space Center, China (TSC)

Note: This is SATELLITE DEBRIS
aabbcc
Your satellite tracking list
Your tracking list is empty




NASA's NSSDC Master Catalog

Two Line Element Set (TLE):
1 31066U 99025BFL 19196.04791734  .00000774  00000-0  63060-4 0  9999
2 31066  99.0383  43.7624 0186514 110.2744 251.8626 14.90822656665853
Source of the keplerian elements: AFSPC